Flag for U.S.A. Weather past 2 weeks in Raleigh, North Carolina, U.S.A.

Now
66 °F

Passing clouds.


Feels Like: 66 °F
Forecast: 62 / 77 °F
Wind: 6 mph from Southeast

Location: Raleigh-Durham International Airport

Current Time: Sep 19, 2014 at 3:58:54 AM

Latest Report: Sep 19, 2014 at 2:51 AM


Visibility: 10 mi

Pressure: 30.08 "Hg

Humidity: 78%

Dew point: 59 °F

Location of RaleighLocation

Historic Weather in Raleigh — Graph

°F

Raleigh temperature yesterday

Maximum temperature yesterday: 80 °F (at 3:51 PM)
Minimum temperature yesterday: 60 °F (at 5:51 AM)
Average temperature yesterday: 70 °F

Past Weeks' High & Low Weather Summary

 TemperatureHumidityPressure
High91 °F (Sep 5, 3:51 PM)94% (Sep 5, 6:51 AM)30.27 "Hg (Sep 5, 6:51 AM)
Low60 °F (Sep 18, 5:51 AM)47% (Sep 18, 3:51 PM)29.91 "Hg (Sep 17, 5:51 PM)
Average73 °F79%30.07 "Hg
* Reported Sep 4 2:51 AM — Sep 19 2:51 AM, Raleigh, Weather by CustomWeather, © 2014

Note: Actual official high and low records may vary slightly from our data, if they occured in-between our weather recording intervals... More about our weather records

Advertising

Raleigh weather history for previous 24 hours

 ConditionsComfort  
Time TempWeatherWind HumidityBarometerVisibility
2:51 AM
Sep 19
66 °FPassing clouds.6 mph78%30.08 "Hg10 mi
1:51 AM68 °FPartly cloudy.5 mph73%30.08 "Hg10 mi
12:51 AM69 °FPartly cloudy.7 mph70%30.06 "Hg10 mi
11:51 PM
Sep 18
70 °FPassing clouds.6 mph73%30.06 "Hg10 mi
10:51 PM72 °FMostly cloudy.5 mph66%30.05 "Hg10 mi
9:51 PM72 °FMostly cloudy.5 mph66%30.03 "Hg10 mi
8:51 PM72 °FMostly cloudy.5 mph68%30.01 "Hg10 mi
7:51 PM73 °FBroken clouds.5 mph64%29.99 "Hg10 mi
6:51 PM75 °FPartly sunny.7 mph62%29.98 "Hg10 mi
5:51 PM76 °FBroken clouds.6 mph58%29.97 "Hg10 mi
4:51 PM78 °FPartly sunny.7 mph52%29.97 "Hg10 mi
3:51 PM80 °FScattered clouds.No wind47%29.97 "Hg10 mi
2:51 PM77 °FScattered clouds.6 mph52%29.98 "Hg10 mi
1:51 PM78 °FScattered clouds.5 mph54%29.99 "Hg10 mi
12:51 PM77 °FScattered clouds.No wind56%30.00 "Hg10 mi
11:51 AM76 °FScattered clouds.No wind58%30.01 "Hg10 mi
10:51 AM72 °FPartly sunny.5 mph66%30.01 "Hg10 mi
9:51 AM70 °FPartly sunny.No wind71%30.01 "Hg10 mi
8:51 AM66 °FScattered clouds.5 mph81%29.99 "Hg10 mi
7:51 AM63 °FPassing clouds.3 mph87%29.99 "Hg9 mi
6:51 AM60 °FFog.3 mph90%29.98 "Hg6 mi
5:51 AM60 °FPassing clouds.No wind90%29.97 "Hg8 mi
4:51 AM61 °FPassing clouds.No wind90%29.95 "Hg10 mi
3:51 AM61 °FPassing clouds.No wind90%29.94 "Hg10 mi
Weather by CustomWeather, © 2014

See weather overviewHow to use our weather pages